This demonstration page uses our WeatherBlox Daily Observations layout. Learn more.

Left ArrowRight Arrow

Hourly Observations for July 5, 2021

Temp ( °F °C ) Dew Point ( °F °C ) Humidity (%) Winds ( mph kmh ) Pressure ( in mb ) Visibility ( mi km ) Precip ( " mm )
12:53 am 00:53 Clear 81 27.2 67 19.4 62 62 SE 14 22 29.80 1009 10 16 0.00 0.00
1:53 am 01:53 Clear 79 26.1 67 19.4 67 67 SE 14 22 29.80 1009 10 16 0.00 0.00
2:53 am 02:53 Clear 77 25 67 19.4 71 71 SE 10 17 29.78 1009 10 16 0.00 0.00
3:53 am 03:53 Clear 77 25 67 19.4 71 71 ESE 7 11 29.79 1009 10 16 0.00 0.00
4:53 am 04:53 Clear 76 24.4 68 20 77 77 ESE 8 13 29.78 1009 10 16 0.00 0.00
5:53 am 05:53 Clear 75 23.9 68 20 79 79 VRB 5 7 29.81 1010 10 16 0.00 0.00
6:24 am 06:24 Cloudy 76 24.4 64 17.8 67 67 NNE 28 44 29.86 1011 10 16 0.00 0.00
6:53 am 06:53 Cloudy 73 22.8 61 16.1 66 66 NNE 20 31 29.88 1012 10 16 0.00 0.00
7:01 am 07:01 Cloudy 73 22.8 62 16.7 69 69 NNE 18 30 29.89 1012 10 16 0.00 0.00
7:53 am 07:53 Cloudy 72 22.2 63 17.2 73 73 N 12 19 29.87 1011 10 16 0.00 0.00
8:53 am 08:53 Partly Cloudy 73 22.8 63 17.2 71 71 SE 8 13 29.83 1010 10 16 0.00 0.00
9:53 am 09:53 Cloudy 73 22.8 64 17.8 74 74 S 5 7 29.86 1011 10 16 0.00 0.00
10:53 am 10:53 Mostly Cloudy 75 23.9 63 17.2 66 66 NNW 8 13 29.88 1012 10 16 0.00 0.00
11:53 am 11:53 Mostly Cloudy 76 24.4 63 17.2 64 64 WNW 3 6 29.89 1012 10 16 0.00 0.00
12:53 pm 12:53 Sunny 78 25.6 63 17.2 60 60 NE 8 13 29.89 1012 10 16 0.00 0.00
1:53 pm 13:53 Sunny 83 28.3 63 17.2 51 51 NNE 8 13 29.88 1012 10 16 0.00 0.00
2:53 pm 14:53 Sunny 84 28.9 63 17.2 49 49 ENE 6 9 29.86 1011 10 16 0.00 0.00
3:53 pm 15:53 Sunny 87 30.6 63 17.2 45 45 N 5 7 29.82 1010 10 16 0.00 0.00
4:53 pm 16:53 Sunny 88 31.1 64 17.8 45 45 NNE 8 13 29.80 1009 10 16 0.00 0.00
5:53 pm 17:53 Sunny 89 31.7 65 18.3 45 45 ENE 9 15 29.79 1009 10 16 0.00 0.00
6:53 pm 18:53 Sunny 89 31.7 64 17.8 43 43 ENE 12 19 29.78 1009 10 16 0.00 0.00
7:53 pm 19:53 undefined 88 31.1 62 16.7 42 42 E 10 17 29.79 1009 10 16 0.00 0.00
8:53 pm 20:53 undefined 85 29.4 61 16.1 45 45 E 6 9 29.81 1009 10 16 0.00 0.00
9:53 pm 21:53 undefined 82 27.8 64 17.8 55 55 E 5 7 29.82 1010 10 16 0.00 0.00
10:53 pm 22:53 undefined 81 27.2 65 18.3 58 58 E 9 15 29.85 1011 10 16 0.00 0.00
11:53 pm 23:53 undefined 79 26.1 66 18.9 65 65 SE 12 19 29.87 1012 10 16 0.00 0.00

Powered by AerisWeather